SCOUT A DEB, 2777

Orbit data source: Space-Track

SCOUT A DEB, 2777 is space debris in LEO originally from a launch on Fri, 14 Apr 1967 UTC launched from the Air Force Western Test Range (AFWTR). Debris objects in space refer to the collection of defunct objects orbiting the Earth. Examples of debris include non-operational satellites, rocket bodies, and fragments generated from explosions, collisions, or faulty payload assembly.

Loading next visibility...
SCOUT A DEB details
Identifier
2777, 1967-034C
Orbit
LEO
Last TLE update14 hours ago
Origin
Flag of USUSN NAVAIR (US)
ManufacturerUnknown
MissionSpacecraft
Bus & MotorUnknown
MassUnknown
Launch date (UTC)
1967-04-14 (58 years ago)
Launch vehicleUnknown
Launch site
Air Force Western Test Range (AFWTR)
Object type
Payload
Rocket body
Debris
Shape & HBRUnknown
Radar Cross SectionSmall (<0.1 m²)

Expand to show TLE details & history

TLE from 14 hours ago
0 SCOUT A DEB
1 02777U 67034C   25044.24146805  .00001288  00000-0  73840-3 0  9992
2 02777  90.2554 230.3926 0130327 220.5103 138.6323 14.04890107940793
Epoch: 2025-02-13T05:47Z
Definitive object data (Epoch: 2025-02-13T05:47:42.839Z)
Latitude-0.00002°
Longitude-0.0563°
Altitude951.449 km
Speed7.34 km/s
True Right ascension15h 21m 34s
True Declination0° 00' 00"
Sunlit
Object was in daylight at TLE epoch
Visualization TLE readout
Latitude-6.69572°
Longitude-0.01041°
Altitude947.01 km
Speed7.344 km/s
Apparent Right ascension13h 19m 06s
Apparent Declination-27° 29' 11"
Sunlit
Object is in daylight
Visualization observer readout
Local Sidereal Time22:02:08
Azimuth271.506° WNW
Elevation-47.766°
Doppler factor1
Orbital elements
Apogee altitude968.394 km
Perigee altitude779.367 km
Semi-major axis7,252.017 km
Eccentricity0.0130327
Inclination90.2554°
RAAN230.3926°
Arg. of periapsis220.5103°
True anomaly139.60732°
Mean anomaly138.6323°
Eccentric anomaly139.121°
Mean motion3.51443 °/min
BSTAR0.0007384
Orbital period102.43 mins
Loading maneuver chart data...
Loading historical data...
Loading historical data...
Loading historical data...
Loading historical data...
Loading historical data...
Loading historical data...
Loading historical data...

SCOUT A DEB Visibility forecast

Observer location: undefined°, undefined

Span
Click to sort rows by Start time (UTC) header in descending order
Start Az.
Max El. time (UTC)
Max El. Az.
Max El.
End time (UTC)
End Az.
7 mins2025-02-13 23:30:17.904Z39.307° NE2025-02-13 23:33:17.904Z75.046° E19.318°2025-02-13 23:37:17.904Z125.088° SE
9 mins2025-02-14 01:12:17.904Z345.663° N2025-02-14 01:16:17.904Z278.721° WNW36.591°2025-02-14 01:21:17.904Z206.742° SW
4 mins2025-02-14 11:02:17.904Z88.309° E2025-02-14 11:04:17.904Z67.453° ENE13.594°2025-02-14 11:06:17.904Z47.213° ENE
10 mins2025-02-14 12:41:17.904Z178.867° S2025-02-14 12:45:17.904Z221.603° SW44.796°2025-02-14 12:51:17.904Z356.288° N
|